Time,TemperatureF,DewpointF,PressureIn,WindDirection,WindDirectionDegrees,WindSpeedMPH,WindSpeedGustMPH,Humidity,HourlyPrecipIn,Conditions,Clouds,dailyrainin,SoftwareType,DateUTC
2013-01-19 00:00:00,63.0,50.0,30.29,West,272,4.9,4.9,65,0.00,,,99.99,vws,2013-01-19 05:00:00,
2013-01-19 00:05:00,63.0,50.0,30.29,WNW,295,3.8,3.8,65,0.00,,,99.99,vws,2013-01-19 05:05:00,
2013-01-19 00:10:00,63.0,50.0,30.29,NW,309,4.5,5.4,65,0.00,,,99.99,vws,2013-01-19 05:10:00,
2013-01-19 00:15:00,63.0,50.0,30.29,NNW,343,3.8,6.7,65,0.00,,,99.99,vws,2013-01-19 05:15:00,
2013-01-19 00:20:00,63.0,50.0,30.29,WNW,288,2.9,4.9,65,0.00,,,99.99,vws,2013-01-19 05:20:00,
2013-01-19 00:25:00,63.0,50.0,30.27,WSW,238,4.5,4.5,65,0.00,,,99.99,vws,2013-01-19 05:25:00,
2013-01-19 00:30:00,63.0,50.0,30.27,WNW,284,2.9,8.3,65,0.00,,,99.99,vws,2013-01-19 05:30:00,
2013-01-19 00:35:00,63.0,50.0,30.27,West,278,3.8,4.9,65,0.00,,,99.99,vws,2013-01-19 05:35:00,
2013-01-19 00:40:00,63.0,50.0,30.27,West,266,3.8,4.9,65,0.00,,,99.99,vws,2013-01-19 05:40:00,
2013-01-19 00:45:00,63.0,50.0,30.27,WNW,290,2.9,2.9,65,0.00,,,99.99,vws,2013-01-19 05:45:00,
2013-01-19 00:50:00,63.0,50.0,30.27,NW,305,2.9,3.6,65,0.00,,,99.99,vws,2013-01-19 05:50:00,
2013-01-19 00:55:00,63.0,50.0,30.27,WNW,288,3.6,5.6,65,0.00,,,99.99,vws,2013-01-19 05:55:00,
2013-01-19 01:00:00,63.0,50.0,30.27,WNW,282,4.5,4.5,65,0.00,,,99.99,vws,2013-01-19 06:00:00,
2013-01-19 01:05:00,63.0,50.0,30.27,WNW,283,4.9,4.9,65,0.00,,,99.99,vws,2013-01-19 06:05:00,
2013-01-19 01:10:00,63.0,50.0,30.27,WNW,301,2.7,2.9,65,0.00,,,99.99,vws,2013-01-19 06:10:00,
2013-01-19 01:15:00,63.0,50.0,30.27,WNW,300,3.6,3.6,65,0.00,,,99.99,vws,2013-01-19 06:15:00,
2013-01-19 01:20:00,63.0,50.0,30.27,West,273,4.5,4.5,65,0.00,,,99.99,vws,2013-01-19 06:20:00,
2013-01-19 01:25:00,63.0,50.0,30.27,WNW,303,3.6,3.6,65,0.00,,,99.99,vws,2013-01-19 06:25:00,
2013-01-19 01:30:00,63.0,50.0,30.27,NW,324,3.6,3.6,65,0.00,,,99.99,vws,2013-01-19 06:30:00,
2013-01-19 01:35:00,63.0,50.0,30.27,West,281,4.5,4.5,65,0.00,,,99.99,vws,2013-01-19 06:35:00,
2013-01-19 01:40:00,63.0,50.0,30.27,West,270,3.8,7.8,65,0.00,,,99.99,vws,2013-01-19 06:40:00,
2013-01-19 01:45:00,63.0,50.0,30.27,NW,317,2.2,2.7,65,0.00,,,99.99,vws,2013-01-19 06:45:00,
2013-01-19 01:50:00,63.0,50.0,30.27,WNW,300,4.5,5.6,65,0.00,,,99.99,vws,2013-01-19 06:50:00,
2013-01-19 01:55:00,63.0,50.0,30.27,West,279,6.7,6.7,65,0.00,,,99.99,vws,2013-01-19 06:55:00,
2013-01-19 02:00:00,63.0,50.0,30.27,NW,307,0.0,5.4,65,0.00,,,99.99,vws,2013-01-19 07:00:00,
2013-01-19 02:05:00,63.0,50.0,30.27,NW,319,5.6,5.6,65,0.00,,,99.99,vws,2013-01-19 07:05:00,
2013-01-19 02:10:00,63.0,50.0,30.27,WNW,299,3.6,3.6,65,0.00,,,99.99,vws,2013-01-19 07:10:00,
2013-01-19 02:15:00,63.0,50.0,30.27,NNW,339,4.9,6.7,65,0.00,,,99.99,vws,2013-01-19 07:15:00,
2013-01-19 02:20:00,63.0,50.0,30.27,NW,320,5.4,8.3,65,0.00,,,99.99,vws,2013-01-19 07:20:00,
2013-01-19 02:25:00,63.0,50.0,30.27,WSW,250,4.5,4.5,65,0.00,,,99.99,vws,2013-01-19 07:25:00,
2013-01-19 02:30:00,63.0,50.0,30.27,NW,304,3.8,5.4,65,0.00,,,99.99,vws,2013-01-19 07:30:00,
2013-01-19 02:35:00,63.0,50.0,30.27,NW,321,3.6,3.6,65,0.00,,,99.99,vws,2013-01-19 07:35:00,
2013-01-19 02:40:00,63.0,50.0,30.27,NNE,14,0.0,3.8,65,0.00,,,99.99,vws,2013-01-19 07:40:00,
2013-01-19 02:45:00,63.0,50.0,30.27,NW,305,0.0,2.7,65,0.00,,,99.99,vws,2013-01-19 07:45:00,
2013-01-19 02:50:00,63.0,50.0,30.27,WNW,303,3.6,3.6,65,0.00,,,99.99,vws,2013-01-19 07:50:00,
2013-01-19 02:55:00,63.0,50.0,30.27,North,0,2.7,2.9,65,0.00,,,99.99,vws,2013-01-19 07:55:00,
2013-01-19 03:00:00,63.0,50.0,30.27,WNW,282,2.9,5.6,65,0.00,,,99.99,vws,2013-01-19 08:00:00,
2013-01-19 03:05:00,63.0,50.0,30.27,West,277,0.0,2.2,65,0.00,,,99.99,vws,2013-01-19 08:05:00,
2013-01-19 03:10:00,63.0,50.0,30.27,NW,306,2.9,0.0,65,0.00,,,99.99,vws,2013-01-19 08:10:00,
2013-01-19 03:15:00,63.0,50.0,30.27,NNW,340,2.9,2.9,65,0.00,,,99.99,vws,2013-01-19 08:15:00,
2013-01-19 03:20:00,63.0,50.0,30.27,WNW,300,2.9,2.9,65,0.00,,,99.99,vws,2013-01-19 08:20:00,
2013-01-19 03:25:00,63.0,50.0,30.24,West,281,4.9,4.9,65,0.00,,,99.99,vws,2013-01-19 08:25:00,
2013-01-19 03:30:00,63.0,50.0,30.24,WNW,284,2.2,3.8,65,0.00,,,99.99,vws,2013-01-19 08:30:00,
2013-01-19 03:35:00,63.0,50.0,30.24,SW,235,3.8,5.6,65,0.00,,,99.99,vws,2013-01-19 08:35:00,
2013-01-19 03:40:00,63.0,50.0,30.27,NW,309,4.5,5.6,65,0.00,,,99.99,vws,2013-01-19 08:40:00,
2013-01-19 03:45:00,63.0,50.0,30.27,West,272,4.5,4.5,65,0.00,,,99.99,vws,2013-01-19 08:45:00,
2013-01-19 03:50:00,63.0,50.0,30.27,WSW,255,2.7,2.7,65,0.00,,,99.99,vws,2013-01-19 08:50:00,
2013-01-19 03:55:00,63.0,50.0,30.24,West,281,4.9,4.9,65,0.00,,,99.99,vws,2013-01-19 08:55:00,
2013-01-19 04:00:00,63.0,50.0,30.24,NW,314,2.7,2.7,65,0.00,,,99.99,vws,2013-01-19 09:00:00,
2013-01-19 04:05:00,63.0,50.0,30.24,West,265,2.9,3.6,65,0.00,,,99.99,vws,2013-01-19 09:05:00,
2013-01-19 04:10:00,63.0,50.0,30.24,WSW,253,2.7,2.7,65,0.00,,,99.99,vws,2013-01-19 09:10:00,
2013-01-19 04:15:00,63.0,50.0,30.24,WNW,290,2.2,0.0,65,0.00,,,99.99,vws,2013-01-19 09:15:00,
2013-01-19 04:20:00,63.0,50.0,30.24,WNW,294,2.9,2.9,65,0.00,,,99.99,vws,2013-01-19 09:20:00,
2013-01-19 04:25:00,63.0,50.0,30.24,West,275,4.5,4.5,65,0.00,,,99.99,vws,2013-01-19 09:25:00,
2013-01-19 04:30:00,63.0,50.0,30.24,WNW,285,2.7,3.6,65,0.00,,,99.99,vws,2013-01-19 09:30:00,
2013-01-19 04:35:00,63.0,50.0,30.24,West,264,4.5,4.5,65,0.00,,,99.99,vws,2013-01-19 09:35:00,
2013-01-19 04:40:00,63.0,50.0,30.24,West,270,4.5,4.5,65,0.00,,,99.99,vws,2013-01-19 09:40:00,
2013-01-19 04:45:00,63.0,50.0,30.24,WNW,293,0.0,0.0,65,0.00,,,99.99,vws,2013-01-19 09:45:00,
2013-01-19 04:50:00,63.0,50.0,30.24,NW,309,4.9,4.9,65,0.00,,,99.99,vws,2013-01-19 09:50:00,
2013-01-19 04:55:00,63.0,50.0,30.24,WNW,297,3.8,3.8,65,0.00,,,99.99,vws,2013-01-19 09:55:00,
2013-01-19 05:00:00,63.0,50.0,30.24,SW,225,2.7,4.9,65,0.00,,,99.99,vws,2013-01-19 10:00:00,
2013-01-19 05:05:00,63.0,50.0,30.24,SW,214,3.6,3.6,65,0.00,,,99.99,vws,2013-01-19 10:05:00,
2013-01-19 05:10:00,63.0,50.0,30.24,North,357,3.8,3.8,65,0.00,,,99.99,vws,2013-01-19 10:10:00,
2013-01-19 05:15:00,63.0,50.0,30.24,WNW,290,3.8,3.8,65,0.00,,,99.99,vws,2013-01-19 10:15:00,
2013-01-19 05:20:00,63.0,50.0,30.24,WSW,257,2.7,6.0,65,0.00,,,99.99,vws,2013-01-19 10:20:00,
2013-01-19 05:25:00,63.0,50.0,30.27,WNW,282,3.8,3.8,65,0.00,,,99.99,vws,2013-01-19 10:25:00,
2013-01-19 05:30:00,63.0,50.0,30.27,NW,315,0.0,3.8,65,0.00,,,99.99,vws,2013-01-19 10:30:00,
2013-01-19 05:35:00,63.0,50.0,30.27,NW,306,3.6,5.4,65,0.00,,,99.99,vws,2013-01-19 10:35:00,
2013-01-19 05:40:00,63.0,50.0,30.27,West,276,2.9,0.0,65,0.00,,,99.99,vws,2013-01-19 10:40:00,
2013-01-19 05:45:00,63.0,50.0,30.27,WSW,249,2.9,2.9,65,0.00,,,99.99,vws,2013-01-19 10:45:00,
2013-01-19 05:50:00,63.0,50.0,30.27,WSW,252,2.9,3.8,65,0.00,,,99.99,vws,2013-01-19 10:50:00,
2013-01-19 05:55:00,63.0,50.0,30.27,WNW,303,2.7,0.0,65,0.00,,,99.99,vws,2013-01-19 10:55:00,
2013-01-19 06:00:00,63.0,50.0,30.27,NNW,338,0.0,0.0,65,0.00,,,99.99,vws,2013-01-19 11:00:00,
2013-01-19 06:05:00,63.0,50.0,30.27,NNW,348,0.0,0.0,65,0.00,,,99.99,vws,2013-01-19 11:05:00,
2013-01-19 06:10:00,63.0,50.0,30.27,NW,311,2.2,2.2,65,0.00,,,99.99,vws,2013-01-19 11:10:00,
2013-01-19 07:47:00,63.0,50.0,30.24,West,281,0.0,2.9,65,0.00,,,0.00,vws,2013-01-19 12:47:00,
2013-01-19 07:48:00,63.0,50.0,30.24,NW,306,3.6,3.6,65,0.00,,,0.00,vws,2013-01-19 12:48:00,
2013-01-19 07:53:00,63.0,50.0,30.24,WNW,291,2.9,3.6,65,0.00,,,0.00,vws,2013-01-19 12:53:00,
2013-01-19 07:58:00,63.0,50.0,30.27,WNW,282,5.4,5.4,65,0.00,,,0.00,vws,2013-01-19 12:58:00,
2013-01-19 08:03:00,63.0,50.0,30.27,NNW,331,2.2,3.6,65,0.00,,,0.00,vws,2013-01-19 13:03:00,
2013-01-19 08:08:00,63.0,50.0,30.27,WNW,286,3.6,5.4,65,0.00,,,0.00,vws,2013-01-19 13:08:00,
2013-01-19 08:13:00,63.0,50.0,30.27,NW,317,4.5,4.5,65,0.00,,,0.00,vws,2013-01-19 13:13:00,
2013-01-19 08:18:00,63.0,50.0,30.27,WSW,242,3.8,3.8,65,0.00,,,0.00,vws,2013-01-19 13:18:00,
2013-01-19 08:23:00,63.0,50.0,30.27,NNE,28,2.9,5.6,65,0.00,,,0.00,vws,2013-01-19 13:23:00,
2013-01-19 08:28:00,63.0,50.0,30.27,NW,325,3.8,3.8,65,0.00,,,0.00,vws,2013-01-19 13:28:00,
2013-01-19 08:33:00,63.0,50.0,30.27,NW,317,3.8,3.8,65,0.00,,,0.00,vws,2013-01-19 13:33:00,
2013-01-19 08:38:00,63.0,50.0,30.27,North,8,3.6,3.6,65,0.00,,,0.00,vws,2013-01-19 13:38:00,
2013-01-19 08:43:00,63.0,50.0,30.27,NNW,343,3.6,3.6,65,0.00,,,0.00,vws,2013-01-19 13:43:00,
2013-01-19 08:48:00,63.0,50.0,30.27,NNW,346,4.9,4.9,65,0.00,,,0.00,vws,2013-01-19 13:48:00,
2013-01-19 08:53:00,63.0,50.0,30.27,NW,306,5.6,5.6,65,0.00,,,0.00,vws,2013-01-19 13:53:00,
2013-01-19 08:58:00,63.0,50.0,30.27,North,8,3.8,3.8,65,0.00,,,0.00,vws,2013-01-19 13:58:00,
2013-01-19 09:03:00,63.0,50.0,30.27,North,5,4.9,5.6,65,0.00,,,0.00,vws,2013-01-19 14:03:00,
2013-01-19 09:08:00,63.0,50.0,30.27,West,280,2.9,2.9,65,0.00,,,0.00,vws,2013-01-19 14:08:00,
2013-01-19 09:13:00,63.0,50.0,30.27,NNW,344,2.9,3.6,65,0.00,,,0.00,vws,2013-01-19 14:13:00,
2013-01-19 09:18:00,63.0,50.0,30.27,NNW,335,4.9,4.9,65,0.00,,,0.00,vws,2013-01-19 14:18:00,
2013-01-19 09:23:00,63.0,50.0,30.27,WNW,288,2.9,2.9,65,0.00,,,0.00,vws,2013-01-19 14:23:00,
2013-01-19 09:28:00,63.0,50.0,30.27,WNW,303,3.6,3.6,65,0.00,,,0.00,vws,2013-01-19 14:28:00,
2013-01-19 09:33:00,63.0,50.0,30.27,North,0,4.5,5.4,65,0.00,,,0.00,vws,2013-01-19 14:33:00,
2013-01-19 09:38:00,63.0,50.0,30.29,NW,309,4.9,7.8,65,0.00,,,0.00,vws,2013-01-19 14:38:00,
2013-01-19 09:43:00,63.0,50.0,30.29,WNW,288,5.6,5.6,65,0.00,,,0.00,vws,2013-01-19 14:43:00,
2013-01-19 09:48:00,63.0,50.0,30.29,West,262,3.8,3.8,65,0.00,,,0.00,vws,2013-01-19 14:48:00,
2013-01-19 09:53:00,63.0,50.0,30.29,North,357,5.6,5.6,65,0.00,,,0.00,vws,2013-01-19 14:53:00,
2013-01-19 09:58:00,63.0,50.0,30.29,North,353,6.7,6.7,65,0.00,,,0.00,vws,2013-01-19 14:58:00,
2013-01-19 10:03:00,63.0,50.0,30.29,NNW,343,5.4,5.4,65,0.00,,,0.00,vws,2013-01-19 15:03:00,
2013-01-19 10:08:00,63.0,50.0,30.29,North,350,6.0,6.0,65,0.00,,,0.00,vws,2013-01-19 15:08:00,
2013-01-19 10:13:00,63.0,50.0,30.29,NE,39,4.9,5.4,65,0.00,,,0.00,vws,2013-01-19 15:13:00,
2013-01-19 10:18:00,63.0,50.0,30.29,NW,316,6.7,7.8,65,0.00,,,0.00,vws,2013-01-19 15:18:00,
2013-01-19 10:23:00,63.0,50.0,30.29,NW,322,3.8,11.2,65,0.00,,,0.00,vws,2013-01-19 15:23:00,
2013-01-19 10:28:00,63.0,50.0,30.29,North,3,7.6,7.6,65,0.00,,,0.00,vws,2013-01-19 15:28:00,
2013-01-19 10:33:00,63.0,50.0,30.29,NNW,341,6.7,6.7,65,0.00,,,0.00,vws,2013-01-19 15:33:00,
2013-01-19 10:38:00,63.0,50.0,30.29,North,6,4.9,7.2,65,0.00,,,0.00,vws,2013-01-19 15:38:00,
2013-01-19 10:43:00,63.0,50.0,30.29,NNW,328,3.6,3.8,65,0.00,,,0.00,vws,2013-01-19 15:43:00,
2013-01-19 10:48:00,63.0,50.0,30.29,NW,320,5.4,5.4,65,0.00,,,0.00,vws,2013-01-19 15:48:00,
2013-01-19 10:53:00,63.0,50.0,30.29,WNW,302,7.6,7.6,65,0.00,,,0.00,vws,2013-01-19 15:53:00,
2013-01-19 10:58:00,63.0,50.0,30.29,WNW,293,3.8,8.3,65,0.00,,,0.00,vws,2013-01-19 15:58:00,
2013-01-19 11:03:00,63.0,50.0,30.29,NW,318,5.4,5.4,65,0.00,,,0.00,vws,2013-01-19 16:03:00,
2013-01-19 11:08:00,63.0,50.0,30.29,WNW,301,6.0,6.0,65,0.00,,,0.00,vws,2013-01-19 16:08:00,
2013-01-19 11:13:00,63.0,50.0,30.29,NW,305,3.8,7.6,65,0.00,,,0.00,vws,2013-01-19 16:13:00,
2013-01-19 11:18:00,63.0,50.0,30.29,NW,318,5.6,5.6,65,0.00,,,0.00,vws,2013-01-19 16:18:00,
2013-01-19 11:23:00,63.0,50.0,30.27,NNW,332,6.0,6.0,65,0.00,,,0.00,vws,2013-01-19 16:23:00,
2013-01-19 11:28:00,63.0,50.0,30.27,NW,314,5.4,5.4,65,0.00,,,0.00,vws,2013-01-19 16:28:00,
2013-01-19 11:33:00,63.0,50.0,30.27,NNW,331,6.7,9.6,65,0.00,,,0.00,vws,2013-01-19 16:33:00,
2013-01-19 11:38:00,63.0,50.0,30.27,WNW,300,8.3,8.7,65,0.00,,,0.00,vws,2013-01-19 16:38:00,
2013-01-19 11:43:00,63.0,50.0,30.27,North,3,7.8,7.8,65,0.00,,,0.00,vws,2013-01-19 16:43:00,
2013-01-19 11:48:00,63.0,50.0,30.27,North,5,6.7,6.7,65,0.00,,,0.00,vws,2013-01-19 16:48:00,
2013-01-19 11:53:00,63.0,50.0,30.27,North,8,7.6,8.7,65,0.00,,,0.00,vws,2013-01-19 16:53:00,
2013-01-19 11:58:00,63.0,50.0,30.27,NNE,22,7.6,8.3,65,0.00,,,0.00,vws,2013-01-19 16:58:00,
2013-01-19 12:03:00,63.0,50.0,30.27,West,278,6.0,6.0,65,0.00,,,0.00,vws,2013-01-19 17:03:00,
2013-01-19 12:08:00,63.0,50.0,30.24,NNE,21,7.2,7.6,65,0.00,,,0.00,vws,2013-01-19 17:08:00,
2013-01-19 12:13:00,63.0,50.0,30.24,North,357,7.8,8.3,65,0.00,,,0.00,vws,2013-01-19 17:13:00,
2013-01-19 12:18:00,63.0,50.0,30.24,NW,322,6.0,6.0,65,0.00,,,0.00,vws,2013-01-19 17:18:00,
2013-01-19 12:23:00,63.0,50.0,30.24,NNW,337,6.7,6.7,65,0.00,,,0.00,vws,2013-01-19 17:23:00,
2013-01-19 12:28:00,63.0,50.0,30.24,North,0,6.0,8.3,65,0.00,,,0.00,vws,2013-01-19 17:28:00,
2013-01-19 12:33:00,63.0,50.0,30.24,NNW,348,4.5,4.5,65,0.00,,,0.00,vws,2013-01-19 17:33:00,
2013-01-19 12:38:00,63.0,50.0,30.24,NW,311,5.6,5.6,65,0.00,,,0.00,vws,2013-01-19 17:38:00,
2013-01-19 12:43:00,63.0,50.0,30.24,WNW,294,7.6,7.6,65,0.00,,,0.00,vws,2013-01-19 17:43:00,
2013-01-19 12:48:00,63.0,50.0,30.24,North,2,7.2,7.2,65,0.00,,,0.00,vws,2013-01-19 17:48:00,
2013-01-19 12:53:00,63.0,50.0,30.21,North,3,4.5,4.5,65,0.00,,,0.00,vws,2013-01-19 17:53:00,
2013-01-19 12:58:00,63.0,50.0,30.21,North,353,5.4,6.0,65,0.00,,,0.00,vws,2013-01-19 17:58:00,
2013-01-19 13:03:00,63.0,50.0,30.21,North,353,5.6,5.6,65,0.00,,,0.00,vws,2013-01-19 18:03:00,
2013-01-19 13:08:00,63.0,50.0,30.21,NNW,348,5.4,5.4,65,0.00,,,0.00,vws,2013-01-19 18:08:00,
2013-01-19 13:13:00,63.0,50.0,30.21,NE,36,5.4,8.7,65,0.00,,,0.00,vws,2013-01-19 18:13:00,
2013-01-19 13:18:00,63.0,50.0,30.21,WNW,300,5.6,5.6,65,0.00,,,0.00,vws,2013-01-19 18:18:00,
2013-01-19 13:23:00,63.0,50.0,30.21,NNW,332,4.5,4.5,65,0.00,,,0.00,vws,2013-01-19 18:23:00,
2013-01-19 13:28:00,63.0,50.0,30.21,NW,306,4.9,7.2,65,0.00,,,0.00,vws,2013-01-19 18:28:00,
2013-01-19 13:33:00,63.0,50.0,30.21,NNW,333,7.2,7.2,65,0.00,,,0.00,vws,2013-01-19 18:33:00,
2013-01-19 13:38:00,63.0,50.0,30.18,NNE,20,5.6,5.6,65,0.00,,,0.00,vws,2013-01-19 18:38:00,
2013-01-19 13:43:00,63.0,50.0,30.18,NNW,335,3.6,7.6,65,0.00,,,0.00,vws,2013-01-19 18:43:00,
2013-01-19 13:48:00,63.0,50.0,30.18,NW,315,4.5,7.8,65,0.00,,,0.00,vws,2013-01-19 18:48:00,
2013-01-19 13:53:00,63.0,50.0,30.18,NW,307,6.0,7.8,65,0.00,,,0.00,vws,2013-01-19 18:53:00,
2013-01-19 13:58:00,63.0,50.0,30.18,WNW,299,3.6,5.4,65,0.00,,,0.00,vws,2013-01-19 18:58:00,
2013-01-19 14:03:00,63.0,50.0,30.18,WSW,258,4.9,6.0,65,0.00,,,0.00,vws,2013-01-19 19:03:00,
2013-01-19 14:08:00,63.0,50.0,30.18,NW,310,4.9,4.9,65,0.00,,,0.00,vws,2013-01-19 19:08:00,
2013-01-19 14:13:00,63.0,50.0,30.18,WNW,300,4.9,4.9,65,0.00,,,0.00,vws,2013-01-19 19:13:00,
2013-01-19 14:18:00,63.0,50.0,30.18,NNE,22,2.7,3.8,65,0.00,,,0.00,vws,2013-01-19 19:18:00,
2013-01-19 14:23:00,63.0,50.0,30.18,NW,320,6.7,6.7,65,0.00,,,0.00,vws,2013-01-19 19:23:00,
2013-01-19 14:28:00,63.0,50.0,30.18,NW,318,4.5,4.5,65,0.00,,,0.00,vws,2013-01-19 19:28:00,
2013-01-19 14:33:00,63.0,50.0,30.18,WNW,297,2.9,6.0,65,0.00,,,0.00,vws,2013-01-19 19:33:00,
2013-01-19 14:38:00,63.0,50.0,30.15,North,357,3.8,5.4,65,0.00,,,0.00,vws,2013-01-19 19:38:00,
2013-01-19 14:43:00,63.0,50.0,30.15,NW,318,3.8,5.6,65,0.00,,,0.00,vws,2013-01-19 19:43:00,
2013-01-19 14:48:00,63.0,50.0,30.15,North,10,3.6,3.6,65,0.00,,,0.00,vws,2013-01-19 19:48:00,
2013-01-19 14:53:00,63.0,50.0,30.15,WSW,241,2.9,5.6,65,0.00,,,0.00,vws,2013-01-19 19:53:00,
2013-01-19 14:58:00,63.0,50.0,30.15,North,357,4.9,5.4,65,0.00,,,0.00,vws,2013-01-19 19:58:00,
2013-01-19 15:03:00,63.0,50.0,30.15,NNW,338,5.6,5.6,65,0.00,,,0.00,vws,2013-01-19 20:03:00,
2013-01-19 15:08:00,63.0,50.0,30.15,NW,313,4.9,4.9,65,0.00,,,0.00,vws,2013-01-19 20:08:00,
2013-01-19 15:13:00,63.0,50.0,30.15,North,7,4.5,5.4,65,0.00,,,0.00,vws,2013-01-19 20:13:00,
2013-01-19 15:18:00,63.0,50.0,30.15,NW,308,3.6,5.4,65,0.00,,,0.00,vws,2013-01-19 20:18:00,
2013-01-19 15:23:00,63.0,50.0,30.15,NW,311,3.8,6.7,65,0.00,,,0.00,vws,2013-01-19 20:23:00,
2013-01-19 15:28:00,63.0,50.0,30.15,NW,304,2.9,3.8,65,0.00,,,0.00,vws,2013-01-19 20:28:00,
2013-01-19 15:33:00,63.0,50.0,30.15,WSW,239,2.7,2.9,65,0.00,,,0.00,vws,2013-01-19 20:33:00,
2013-01-19 15:38:00,63.0,50.0,30.15,NNW,330,5.4,5.4,65,0.00,,,0.00,vws,2013-01-19 20:38:00,
2013-01-19 15:43:00,63.0,50.0,30.15,NNW,330,4.9,5.6,65,0.00,,,0.00,vws,2013-01-19 20:43:00,
2013-01-19 15:48:00,63.0,50.0,30.15,WNW,287,5.6,7.6,65,0.00,,,0.00,vws,2013-01-19 20:48:00,
2013-01-19 15:53:00,63.0,50.0,30.15,North,0,4.5,5.6,65,0.00,,,0.00,vws,2013-01-19 20:53:00,
2013-01-19 15:58:00,63.0,50.0,30.15,North,7,2.9,2.9,65,0.00,,,0.00,vws,2013-01-19 20:58:00,
2013-01-19 16:03:00,63.0,50.0,30.15,North,353,3.8,4.5,65,0.00,,,0.00,vws,2013-01-19 21:03:00,
2013-01-19 16:08:00,63.0,50.0,30.15,NNW,337,3.8,6.0,65,0.00,,,0.00,vws,2013-01-19 21:08:00,
2013-01-19 16:13:00,63.0,50.0,30.15,NNW,343,3.8,3.8,65,0.00,,,0.00,vws,2013-01-19 21:13:00,
2013-01-19 16:18:00,63.0,50.0,30.15,NNW,331,3.8,5.4,65,0.00,,,0.00,vws,2013-01-19 21:18:00,
2013-01-19 16:23:00,63.0,50.0,30.15,WNW,290,4.5,5.6,65,0.00,,,0.00,vws,2013-01-19 21:23:00,
2013-01-19 16:28:00,63.0,50.0,30.15,NNW,335,4.5,4.5,65,0.00,,,0.00,vws,2013-01-19 21:28:00,
2013-01-19 16:33:00,63.0,50.0,30.15,NW,317,2.9,2.9,65,0.00,,,0.00,vws,2013-01-19 21:33:00,
2013-01-19 16:38:00,63.0,50.0,30.15,WNW,295,3.8,6.0,65,0.00,,,0.00,vws,2013-01-19 21:38:00,
2013-01-19 16:43:00,63.0,50.0,30.15,NNE,17,4.5,4.5,65,0.00,,,0.00,vws,2013-01-19 21:43:00,
2013-01-19 16:48:00,63.0,50.0,30.15,North,353,2.7,0.0,65,0.00,,,0.00,vws,2013-01-19 21:48:00,
2013-01-19 16:53:00,63.0,50.0,30.18,WNW,284,4.5,4.5,65,0.00,,,0.00,vws,2013-01-19 21:53:00,
2013-01-19 16:58:00,63.0,50.0,30.18,North,2,2.7,5.6,65,0.00,,,0.00,vws,2013-01-19 21:58:00,
2013-01-19 17:03:00,63.0,50.0,30.18,NNE,20,5.4,5.6,65,0.00,,,0.00,vws,2013-01-19 22:03:00,
2013-01-19 17:08:00,63.0,50.0,30.18,NNW,340,3.6,3.6,65,0.00,,,0.00,vws,2013-01-19 22:08:00,
2013-01-19 17:13:00,63.0,50.0,30.18,NNW,331,2.2,2.2,65,0.00,,,0.00,vws,2013-01-19 22:13:00,
2013-01-19 17:18:00,63.0,50.0,30.18,North,357,2.2,3.6,65,0.00,,,0.00,vws,2013-01-19 22:18:00,
2013-01-19 17:23:00,63.0,50.0,30.18,North,7,0.0,0.0,65,0.00,,,0.00,vws,2013-01-19 22:23:00,
2013-01-19 17:28:00,63.0,50.0,30.18,NNW,328,2.7,2.7,65,0.00,,,0.00,vws,2013-01-19 22:28:00,
2013-01-19 17:33:00,63.0,50.0,30.18,NNW,332,2.2,2.9,65,0.00,,,0.00,vws,2013-01-19 22:33:00,
2013-01-19 17:38:00,63.0,50.0,30.18,NNW,341,2.7,2.7,65,0.00,,,0.00,vws,2013-01-19 22:38:00,
2013-01-19 17:43:00,63.0,50.0,30.18,NNW,328,2.7,2.9,65,0.00,,,0.00,vws,2013-01-19 22:43:00,
2013-01-19 17:48:00,63.0,50.0,30.18,NW,325,2.7,2.7,65,0.00,,,0.00,vws,2013-01-19 22:48:00,
2013-01-19 17:53:00,63.0,50.0,30.18,North,357,0.0,2.9,65,0.00,,,0.00,vws,2013-01-19 22:53:00,
2013-01-19 17:58:00,63.0,50.0,30.18,NNW,332,2.2,3.6,65,0.00,,,0.00,vws,2013-01-19 22:58:00,
2013-01-19 18:03:00,63.0,50.0,30.18,North,353,2.2,2.7,65,0.00,,,0.00,vws,2013-01-19 23:03:00,
2013-01-19 18:08:00,63.0,50.0,30.18,NNW,331,2.9,3.8,65,0.00,,,0.00,vws,2013-01-19 23:08:00,
2013-01-19 18:13:00,63.0,50.0,30.18,WNW,291,0.0,2.9,65,0.00,,,0.00,vws,2013-01-19 23:13:00,
2013-01-19 18:18:00,63.0,50.0,30.18,NW,322,3.6,5.4,65,0.00,,,0.00,vws,2013-01-19 23:18:00,
2013-01-19 18:23:00,63.0,50.0,30.15,NNE,23,3.8,3.8,65,0.00,,,0.00,vws,2013-01-19 23:23:00,
2013-01-19 18:28:00,63.0,50.0,30.15,NW,318,2.7,2.9,65,0.00,,,0.00,vws,2013-01-19 23:28:00,
2013-01-19 18:33:00,63.0,50.0,30.15,North,3,2.7,2.9,65,0.00,,,0.00,vws,2013-01-19 23:33:00,
2013-01-19 18:38:00,63.0,50.0,30.18,NW,326,2.9,6.0,65,0.00,,,0.00,vws,2013-01-19 23:38:00,
2013-01-19 18:43:00,63.0,50.0,30.18,WNW,283,2.7,2.7,65,0.00,,,0.00,vws,2013-01-19 23:43:00,
2013-01-19 18:48:00,63.0,50.0,30.18,WNW,301,3.8,3.8,65,0.00,,,0.00,vws,2013-01-19 23:48:00,
2013-01-19 18:53:00,63.0,50.0,30.18,NNW,335,2.2,2.7,65,0.00,,,0.00,vws,2013-01-19 23:53:00,
2013-01-19 18:58:00,63.0,50.0,30.18,NNW,341,2.7,2.7,65,0.00,,,0.00,vws,2013-01-19 23:58:00,
2013-01-19 19:03:00,63.0,50.0,30.18,NNE,17,4.9,4.9,65,0.00,,,0.00,vws,2013-01-20 00:03:00,
2013-01-19 19:08:00,63.0,50.0,30.18,NNW,338,4.5,6.0,65,0.00,,,0.00,vws,2013-01-20 00:08:00,
2013-01-19 19:13:00,63.0,50.0,30.18,NNW,338,2.7,2.7,65,0.00,,,0.00,vws,2013-01-20 00:13:00,
2013-01-19 19:18:00,63.0,50.0,30.18,NNW,337,2.2,4.9,65,0.00,,,0.00,vws,2013-01-20 00:18:00,
2013-01-19 19:23:00,63.0,50.0,30.18,North,353,3.6,3.6,65,0.00,,,0.00,vws,2013-01-20 00:23:00,
2013-01-19 19:28:00,63.0,50.0,30.18,NNW,344,2.7,2.9,65,0.00,,,0.00,vws,2013-01-20 00:28:00,
2013-01-19 19:33:00,63.0,50.0,30.18,NNW,344,2.2,4.9,65,0.00,,,0.00,vws,2013-01-20 00:33:00,
2013-01-19 19:38:00,63.0,50.0,30.18,NNW,340,4.5,4.9,65,0.00,,,0.00,vws,2013-01-20 00:38:00,
2013-01-19 19:43:00,63.0,50.0,30.18,WNW,301,4.5,5.4,65,0.00,,,0.00,vws,2013-01-20 00:43:00,
2013-01-19 19:48:00,63.0,50.0,30.18,NNW,334,3.6,3.8,65,0.00,,,0.00,vws,2013-01-20 00:48:00,
2013-01-19 19:54:00,63.0,50.0,30.18,NE,35,3.6,3.6,65,0.00,,,0.00,vws,2013-01-20 00:54:00,
2013-01-19 19:59:00,63.0,50.0,30.18,NNW,342,3.8,3.8,65,0.00,,,0.00,vws,2013-01-20 00:59:00,
2013-01-19 20:04:00,63.0,50.0,30.18,West,277,2.9,3.6,65,0.00,,,0.00,vws,2013-01-20 01:04:00,
2013-01-19 20:09:00,63.0,50.0,30.18,NNW,344,0.0,0.0,65,0.00,,,0.00,vws,2013-01-20 01:09:00,
2013-01-19 20:14:00,63.0,50.0,30.18,NNW,343,3.6,3.6,65,0.00,,,0.00,vws,2013-01-20 01:14:00,
2013-01-19 20:19:00,63.0,50.0,30.18,WSW,244,2.7,2.9,65,0.00,,,0.00,vws,2013-01-20 01:19:00,
2013-01-19 20:24:00,63.0,50.0,30.18,NNW,340,3.8,3.8,65,0.00,,,0.00,vws,2013-01-20 01:24:00,
2013-01-19 20:29:00,63.0,50.0,30.18,North,2,3.8,3.8,65,0.00,,,0.00,vws,2013-01-20 01:29:00,
2013-01-19 20:34:00,63.0,50.0,30.18,North,0,2.9,3.8,65,0.00,,,0.00,vws,2013-01-20 01:34:00,
2013-01-19 20:39:00,63.0,50.0,30.21,NW,305,4.9,4.9,65,0.00,,,0.00,vws,2013-01-20 01:39:00,
2013-01-19 20:44:00,63.0,50.0,30.21,NNW,332,3.8,5.4,65,0.00,,,0.00,vws,2013-01-20 01:44:00,
2013-01-19 20:49:00,63.0,50.0,30.21,North,5,4.9,4.9,65,0.00,,,0.00,vws,2013-01-20 01:49:00,
2013-01-19 20:54:00,63.0,50.0,30.18,NW,311,6.0,6.0,65,0.00,,,0.00,vws,2013-01-20 01:54:00,
2013-01-19 20:59:00,63.0,50.0,30.18,NNW,327,2.9,2.9,65,0.00,,,0.00,vws,2013-01-20 01:59:00,
2013-01-19 21:04:00,63.0,50.0,30.18,NNW,331,3.8,3.8,65,0.00,,,0.00,vws,2013-01-20 02:04:00,
2013-01-19 21:09:00,63.0,50.0,30.18,NNW,342,3.8,3.8,65,0.00,,,0.00,vws,2013-01-20 02:09:00,
2013-01-19 21:14:00,63.0,50.0,30.18,NW,310,2.9,2.9,65,0.00,,,0.00,vws,2013-01-20 02:14:00,
2013-01-19 21:19:00,63.0,50.0,30.18,NNW,345,3.8,3.8,65,0.00,,,0.00,vws,2013-01-20 02:19:00,
2013-01-19 21:24:00,63.0,50.0,30.18,North,353,2.7,3.6,65,0.00,,,0.00,vws,2013-01-20 02:24:00,
2013-01-19 21:29:00,63.0,50.0,30.18,NNW,327,0.0,2.2,65,0.00,,,0.00,vws,2013-01-20 02:29:00,
2013-01-19 21:34:00,63.0,50.0,30.18,NNE,15,2.7,4.5,65,0.00,,,0.00,vws,2013-01-20 02:34:00,
2013-01-19 21:39:00,63.0,50.0,30.18,NNW,346,2.7,2.7,65,0.00,,,0.00,vws,2013-01-20 02:39:00,
2013-01-19 21:44:00,63.0,50.0,30.18,NNW,329,0.0,3.6,65,0.00,,,0.00,vws,2013-01-20 02:44:00,
2013-01-19 21:49:00,63.0,50.0,30.18,NNE,31,2.7,3.8,65,0.00,,,0.00,vws,2013-01-20 02:49:00,
2013-01-19 21:54:00,63.0,50.0,30.18,NNW,335,2.7,2.7,65,0.00,,,0.00,vws,2013-01-20 02:54:00,
2013-01-19 21:59:00,63.0,50.0,30.18,NNW,337,2.9,3.6,65,0.00,,,0.00,vws,2013-01-20 02:59:00,
2013-01-19 22:04:00,63.0,50.0,30.18,NW,314,0.0,2.9,65,0.00,,,0.00,vws,2013-01-20 03:04:00,
2013-01-19 22:09:00,63.0,50.0,30.18,NW,320,2.7,2.9,65,0.00,,,0.00,vws,2013-01-20 03:09:00,
2013-01-19 22:14:00,63.0,50.0,30.18,NW,316,2.7,3.8,65,0.00,,,0.00,vws,2013-01-20 03:14:00,
2013-01-19 22:19:00,63.0,50.0,30.18,NNW,332,2.9,2.9,65,0.00,,,0.00,vws,2013-01-20 03:19:00,
2013-01-19 22:24:00,63.0,50.0,30.18,North,0,0.0,0.0,65,0.00,,,0.00,vws,2013-01-20 03:24:00,
2013-01-19 22:29:00,63.0,50.0,30.18,North,353,0.0,0.0,65,0.00,,,0.00,vws,2013-01-20 03:29:00,
2013-01-19 22:34:00,63.0,50.0,30.18,NNW,343,2.2,2.7,65,0.00,,,0.00,vws,2013-01-20 03:34:00,
2013-01-19 22:39:00,63.0,50.0,30.18,NNW,330,2.7,2.9,65,0.00,,,0.00,vws,2013-01-20 03:39:00,
2013-01-19 22:44:00,63.0,50.0,30.18,NE,35,2.2,2.2,65,0.00,,,0.00,vws,2013-01-20 03:44:00,
2013-01-19 22:49:00,63.0,50.0,30.18,West,267,0.0,0.0,65,0.00,,,0.00,vws,2013-01-20 03:49:00,
2013-01-19 22:54:00,63.0,50.0,30.18,WNW,302,0.0,0.0,65,0.00,,,0.00,vws,2013-01-20 03:54:00,
2013-01-19 22:59:00,63.0,50.0,30.18,WNW,300,0.0,0.0,65,0.00,,,0.00,vws,2013-01-20 03:59:00,
2013-01-19 23:04:00,63.0,50.0,30.18,North,0,0.0,0.0,65,0.00,,,0.00,vws,2013-01-20 04:04:00,
2013-01-19 23:09:00,63.0,50.0,30.18,NW,323,2.2,3.6,65,0.00,,,0.00,vws,2013-01-20 04:09:00,
2013-01-19 23:14:00,63.0,50.0,30.18,NNW,327,2.7,2.9,65,0.00,,,0.00,vws,2013-01-20 04:14:00,
2013-01-19 23:19:00,63.0,50.0,30.18,NNW,327,3.8,3.8,65,0.00,,,0.00,vws,2013-01-20 04:19:00,
2013-01-19 23:24:00,63.0,50.0,30.18,WNW,301,2.9,2.9,65,0.00,,,0.00,vws,2013-01-20 04:24:00,
2013-01-19 23:29:00,63.0,50.0,30.18,NE,35,0.0,3.6,65,0.00,,,0.00,vws,2013-01-20 04:29:00,
2013-01-19 23:34:00,63.0,50.0,30.18,WNW,296,2.2,0.0,65,0.00,,,0.00,vws,2013-01-20 04:34:00,
2013-01-19 23:39:00,63.0,50.0,30.18,NW,317,0.0,2.2,65,0.00,,,0.00,vws,2013-01-20 04:39:00,
2013-01-19 23:44:00,63.0,50.0,30.18,NW,322,0.0,3.6,65,0.00,,,0.00,vws,2013-01-20 04:44:00,
2013-01-19 23:49:00,63.0,50.0,30.18,West,278,0.0,2.7,65,0.00,,,0.00,vws,2013-01-20 04:49:00,
2013-01-19 23:54:00,63.0,50.0,30.18,NNW,341,0.0,2.9,65,0.00,,,0.00,vws,2013-01-20 04:54:00,
2013-01-19 23:59:00,63.0,50.0,30.18,North,0,2.2,0.0,65,0.00,,,0.00,vws,2013-01-20 04:59:00,